Weather in Conwy

United Kingdom     53°16′59″N   3°49′56″W
temp.,
°C
wind,
m/s
gust,
m/s
humid.,
%
clouds,
%
prec.,
mm/h
press.,
hPa
HPBL,
m
21 january, fri
fri2100:00+3sw228498 0.0 104144
03:00+4wsw2383100 0.0 104090
06:00+4w258793 0.0 1040177
09:00+4w278689 0.0 1040317
12:00+6w367289 0.0 1040970
15:00+6wnw467389 0.0 1039877
18:00+3wsw24955 0.0 1039120
21:00+2wsw23954 0.0 103964
22 january, sat
sat2200:00+2wsw339579 0.0 103970
03:00+5w478399 0.0 1038609
06:00+5w4782100 0.0 1038665
09:00+5w3786100 0.0 1038505
12:00+6wsw268098 0.1 1038522
15:00+7w357189 0.0 1037811
18:00+6wsw248089 0.0 103795
21:00+6wsw247889 0.0 103792
23 january, sun
sun2300:00+6sw227586 0.0 103637
03:00+3ssw32897 0.0 103546
06:00+2s33902 0.0 103449
09:00+2s34905 0.0 103466
12:00+7ssw127374 0.0 1033411
15:00+7sw11765 0.0 1032148
18:00+2ssw33950 0.0 103266
21:00+2s33965 0.0 103263
24 january, mon
mon2400:00+3ssw229239 0.0 103248
03:00+4sw129495 0.0 103359
06:00+5ssw239490 0.1 103373
09:00+4s458989 0.0 103493
12:00+8sw367896 0.0 1035292
15:00+9wsw277953 0.0 1035529
18:00+7w2292100 0.0 103735
21:00+6nne1198100 0.1 103928
25 january, tue
tue2500:00+6sse119589 0.1 103932
03:00+6ssw1194100 0.0 103913
06:00+6ssw219494 0.0 103928
09:00+7ssw2390100 0.0 104069
12:00+9sw2679100 0.0 1040281
15:00+9sw3871100 0.0 1038447
18:00+6ssw4683100 0.0 1039119
21:00+6ssw358498 0.0 1039108